Time,TemperatureF,DewpointF,PressureIn,WindDirection,WindDirectionDegrees,WindSpeedMPH,WindSpeedGustMPH,Humidity,HourlyPrecipIn,Conditions,Clouds,dailyrainin,SoftwareType,DateUTC
2013-03-02 00:00:00,44.0,36.0,29.92,SSW,202,4.0,6.0,74,0.00,,,0.00,Rainwise IP-100,2013-03-02 05:00:00,
2013-03-02 00:05:00,45.0,37.0,29.92,SSW,202,2.0,7.0,72,0.00,,,0.00,Rainwise IP-100,2013-03-02 05:05:00,
2013-03-02 00:10:00,45.0,36.0,29.92,SSW,202,3.0,11.0,70,0.00,,,0.00,Rainwise IP-100,2013-03-02 05:10:00,
2013-03-02 00:15:00,45.0,36.0,29.92,SSW,202,5.0,10.0,70,0.00,,,0.00,Rainwise IP-100,2013-03-02 05:15:00,
2013-03-02 00:20:00,46.0,36.0,29.93,SW,225,7.0,12.0,69,0.00,,,0.00,Rainwise IP-100,2013-03-02 05:20:00,
2013-03-02 00:25:00,46.0,37.0,29.93,SW,225,5.0,12.0,71,0.00,,,0.00,Rainwise IP-100,2013-03-02 05:25:00,
2013-03-02 00:30:00,46.0,37.0,29.93,SW,225,7.0,12.0,71,0.00,,,0.00,Rainwise IP-100,2013-03-02 05:30:00,
2013-03-02 00:35:00,45.0,36.0,29.93,SSW,202,6.0,13.0,71,0.00,,,0.00,Rainwise IP-100,2013-03-02 05:35:00,
2013-03-02 00:40:00,45.0,36.0,29.92,SW,225,3.0,12.0,71,0.00,,,0.00,Rainwise IP-100,2013-03-02 05:40:00,
2013-03-02 00:45:00,45.0,37.0,29.92,SW,225,7.0,11.0,72,0.00,,,0.00,Rainwise IP-100,2013-03-02 05:45:00,
2013-03-02 00:50:00,45.0,37.0,29.92,SW,225,3.0,10.0,72,0.00,,,0.00,Rainwise IP-100,2013-03-02 05:50:00,
2013-03-02 00:55:00,44.0,36.0,29.92,SSW,202,5.0,7.0,72,0.00,,,0.00,Rainwise IP-100,2013-03-02 05:55:00,
2013-03-02 01:00:00,44.0,36.0,29.92,SSW,202,5.0,9.0,73,0.00,,,0.00,Rainwise IP-100,2013-03-02 06:00:00,
2013-03-02 01:05:00,44.0,36.0,29.92,SW,225,5.0,6.0,74,0.00,,,0.00,Rainwise IP-100,2013-03-02 06:05:00,
2013-03-02 01:10:00,44.0,36.0,29.92,SW,225,5.0,7.0,74,0.00,,,0.00,Rainwise IP-100,2013-03-02 06:10:00,
2013-03-02 01:15:00,43.0,36.0,29.92,WNW,292,0.0,7.0,75,0.00,,,0.00,Rainwise IP-100,2013-03-02 06:15:00,
2013-03-02 01:20:00,43.0,36.0,29.92,SSW,202,3.0,8.0,74,0.00,,,0.00,Rainwise IP-100,2013-03-02 06:20:00,
2013-03-02 01:25:00,43.0,36.0,29.92,WNW,292,0.0,10.0,74,0.00,,,0.00,Rainwise IP-100,2013-03-02 06:25:00,
2013-03-02 01:30:00,43.0,36.0,29.92,SW,225,2.0,9.0,75,0.00,,,0.00,Rainwise IP-100,2013-03-02 06:30:00,
2013-03-02 01:35:00,43.0,36.0,29.92,WSW,247,2.0,9.0,76,0.00,,,0.00,Rainwise IP-100,2013-03-02 06:35:00,
2013-03-02 01:40:00,43.0,36.0,29.92,SSW,202,3.0,9.0,76,0.00,,,0.00,Rainwise IP-100,2013-03-02 06:40:00,
2013-03-02 01:45:00,42.0,36.0,29.92,SW,225,7.0,8.0,76,0.00,,,0.00,Rainwise IP-100,2013-03-02 06:45:00,
2013-03-02 01:50:00,42.0,35.0,29.92,WSW,247,3.0,9.0,75,0.00,,,0.00,Rainwise IP-100,2013-03-02 06:50:00,
2013-03-02 01:55:00,42.0,36.0,29.92,SSW,202,1.0,7.0,76,0.00,,,0.00,Rainwise IP-100,2013-03-02 06:55:00,
2013-03-02 02:00:00,42.0,36.0,29.92,West,270,1.0,7.0,76,0.00,,,0.00,Rainwise IP-100,2013-03-02 07:00:00,
2013-03-02 02:05:00,42.0,36.0,29.92,SSW,202,1.0,7.0,76,0.00,,,0.00,Rainwise IP-100,2013-03-02 07:05:00,
2013-03-02 02:10:00,42.0,36.0,29.92,SSW,202,2.0,7.0,76,0.00,,,0.00,Rainwise IP-100,2013-03-02 07:10:00,
2013-03-02 02:15:00,42.0,36.0,29.91,SSW,202,0.0,9.0,76,0.00,,,0.00,Rainwise IP-100,2013-03-02 07:15:00,
2013-03-02 02:20:00,41.0,35.0,29.91,SW,225,2.0,6.0,76,0.00,,,0.00,Rainwise IP-100,2013-03-02 07:20:00,
2013-03-02 02:25:00,41.0,35.0,29.90,West,270,1.0,6.0,77,0.00,,,0.00,Rainwise IP-100,2013-03-02 07:25:00,
2013-03-02 02:30:00,41.0,35.0,29.91,SSW,202,0.0,5.0,78,0.00,,,0.00,Rainwise IP-100,2013-03-02 07:30:00,
2013-03-02 02:35:00,41.0,35.0,29.90,SSW,202,0.0,3.0,78,0.00,,,0.00,Rainwise IP-100,2013-03-02 07:35:00,
2013-03-02 02:40:00,41.0,35.0,29.90,SW,225,1.0,6.0,78,0.00,,,0.00,Rainwise IP-100,2013-03-02 07:40:00,
2013-03-02 02:41:00,41.0,35.0,29.90,WNW,292,0.0,6.0,78,0.00,,,0.00,Rainwise IP-100,2013-03-02 07:41:00,
2013-03-02 02:44:00,40.0,35.0,29.90,SSW,202,0.0,4.0,79,0.00,,,0.00,Rainwise IP-100,2013-03-02 07:44:00,
2013-03-02 02:46:00,40.0,35.0,29.90,SW,225,0.0,4.0,79,0.00,,,0.00,Rainwise IP-100,2013-03-02 07:46:00,
2013-03-02 02:51:00,40.0,35.0,29.89,SW,225,1.0,1.0,80,0.00,,,0.00,Rainwise IP-100,2013-03-02 07:51:00,
2013-03-02 02:56:00,40.0,35.0,29.89,SW,225,0.0,2.0,81,0.00,,,0.00,Rainwise IP-100,2013-03-02 07:56:00,
2013-03-02 03:01:00,40.0,35.0,29.89,WSW,247,0.0,5.0,81,0.00,,,0.00,Rainwise IP-100,2013-03-02 08:01:00,
2013-03-02 03:06:00,40.0,35.0,29.89,WSW,247,1.0,2.0,81,0.00,,,0.00,Rainwise IP-100,2013-03-02 08:06:00,
2013-03-02 03:11:00,40.0,35.0,29.88,SSW,202,1.0,2.0,81,0.00,,,0.00,Rainwise IP-100,2013-03-02 08:11:00,
2013-03-02 03:16:00,40.0,35.0,29.88,SW,225,0.0,3.0,81,0.00,,,0.00,Rainwise IP-100,2013-03-02 08:16:00,
2013-03-02 03:21:00,39.0,33.0,29.89,SW,225,0.0,2.0,81,0.00,,,0.00,Rainwise IP-100,2013-03-02 08:21:00,
2013-03-02 03:26:00,39.0,35.0,29.88,South,180,0.0,3.0,82,0.00,,,0.00,Rainwise IP-100,2013-03-02 08:26:00,
2013-03-02 03:31:00,39.0,35.0,29.88,SW,225,0.0,4.0,83,0.00,,,0.00,Rainwise IP-100,2013-03-02 08:31:00,
2013-03-02 03:36:00,39.0,35.0,29.88,SW,225,0.0,4.0,83,0.00,,,0.00,Rainwise IP-100,2013-03-02 08:36:00,
2013-03-02 03:41:00,39.0,35.0,29.88,SW,225,2.0,4.0,83,0.00,,,0.00,Rainwise IP-100,2013-03-02 08:41:00,
2013-03-02 03:46:00,39.0,35.0,29.88,SW,225,4.0,4.0,83,0.00,,,0.00,Rainwise IP-100,2013-03-02 08:46:00,
2013-03-02 03:51:00,39.0,35.0,29.88,SW,225,0.0,6.0,83,0.00,,,0.00,Rainwise IP-100,2013-03-02 08:51:00,
2013-03-02 03:56:00,39.0,35.0,29.88,SSW,202,0.0,7.0,83,0.00,,,0.00,Rainwise IP-100,2013-03-02 08:56:00,
2013-03-02 04:01:00,39.0,35.0,29.88,West,270,2.0,6.0,83,0.00,,,0.00,Rainwise IP-100,2013-03-02 09:01:00,
2013-03-02 04:06:00,39.0,35.0,29.88,SSW,202,1.0,6.0,83,0.00,,,0.00,Rainwise IP-100,2013-03-02 09:06:00,
2013-03-02 04:11:00,39.0,35.0,29.88,SW,225,2.0,5.0,83,0.00,,,0.00,Rainwise IP-100,2013-03-02 09:11:00,
2013-03-02 04:16:00,39.0,35.0,29.88,SW,225,4.0,5.0,83,0.00,,,0.00,Rainwise IP-100,2013-03-02 09:16:00,
2013-03-02 04:21:00,39.0,35.0,29.88,South,180,0.0,5.0,83,0.00,,,0.00,Rainwise IP-100,2013-03-02 09:21:00,
2013-03-02 04:26:00,39.0,35.0,29.88,SW,225,0.0,6.0,83,0.00,,,0.00,Rainwise IP-100,2013-03-02 09:26:00,
2013-03-02 04:31:00,39.0,35.0,29.88,SSW,202,0.0,3.0,83,0.00,,,0.00,Rainwise IP-100,2013-03-02 09:31:00,
2013-03-02 04:36:00,39.0,35.0,29.88,SW,225,1.0,2.0,84,0.00,,,0.00,Rainwise IP-100,2013-03-02 09:36:00,
2013-03-02 04:41:00,38.0,35.0,29.88,SW,225,1.0,6.0,85,0.00,,,0.00,Rainwise IP-100,2013-03-02 09:41:00,
2013-03-02 04:46:00,39.0,35.0,29.88,SW,225,3.0,6.0,85,0.00,,,0.00,Rainwise IP-100,2013-03-02 09:46:00,
2013-03-02 04:51:00,39.0,35.0,29.88,SW,225,2.0,6.0,84,0.00,,,0.00,Rainwise IP-100,2013-03-02 09:51:00,
2013-03-02 04:56:00,39.0,35.0,29.88,SW,225,3.0,7.0,83,0.00,,,0.00,Rainwise IP-100,2013-03-02 09:56:00,
2013-03-02 05:01:00,39.0,33.0,29.88,South,180,1.0,6.0,81,0.00,,,0.00,Rainwise IP-100,2013-03-02 10:01:00,
2013-03-02 05:06:00,39.0,33.0,29.89,SW,225,3.0,7.0,81,0.00,,,0.00,Rainwise IP-100,2013-03-02 10:06:00,
2013-03-02 05:11:00,40.0,35.0,29.89,WSW,247,3.0,7.0,81,0.00,,,0.00,Rainwise IP-100,2013-03-02 10:11:00,
2013-03-02 05:16:00,40.0,35.0,29.89,SW,225,1.0,9.0,78,0.00,,,0.00,Rainwise IP-100,2013-03-02 10:16:00,
2013-03-02 05:21:00,40.0,35.0,29.89,SW,225,7.0,9.0,79,0.00,,,0.00,Rainwise IP-100,2013-03-02 10:21:00,
2013-03-02 05:26:00,40.0,35.0,29.89,SSW,202,2.0,8.0,78,0.00,,,0.00,Rainwise IP-100,2013-03-02 10:26:00,
2013-03-02 05:31:00,40.0,33.0,29.89,SSW,202,4.0,8.0,77,0.00,,,0.00,Rainwise IP-100,2013-03-02 10:31:00,
2013-03-02 05:36:00,40.0,35.0,29.89,SW,225,8.0,8.0,78,0.00,,,0.00,Rainwise IP-100,2013-03-02 10:36:00,
2013-03-02 05:41:00,40.0,33.0,29.89,SSW,202,0.0,8.0,76,0.00,,,0.00,Rainwise IP-100,2013-03-02 10:41:00,
2013-03-02 05:46:00,40.0,33.0,29.90,SW,225,0.0,7.0,76,0.00,,,0.00,Rainwise IP-100,2013-03-02 10:46:00,
2013-03-02 05:51:00,40.0,35.0,29.89,SW,225,2.0,6.0,78,0.00,,,0.00,Rainwise IP-100,2013-03-02 10:51:00,
2013-03-02 05:56:00,40.0,35.0,29.90,SSW,202,6.0,6.0,80,0.00,,,0.00,Rainwise IP-100,2013-03-02 10:56:00,
2013-03-02 06:01:00,39.0,33.0,29.89,SSW,202,2.0,6.0,80,0.00,,,0.00,Rainwise IP-100,2013-03-02 11:01:00,
2013-03-02 06:06:00,39.0,33.0,29.89,WSW,247,6.0,6.0,80,0.00,,,0.00,Rainwise IP-100,2013-03-02 11:06:00,
2013-03-02 06:11:00,39.0,33.0,29.89,SW,225,6.0,8.0,79,0.00,,,0.00,Rainwise IP-100,2013-03-02 11:11:00,
2013-03-02 06:16:00,39.0,33.0,29.89,SSW,202,0.0,7.0,80,0.00,,,0.00,Rainwise IP-100,2013-03-02 11:16:00,
2013-03-02 06:21:00,39.0,33.0,29.89,SW,225,1.0,5.0,81,0.00,,,0.00,Rainwise IP-100,2013-03-02 11:21:00,
2013-03-02 06:26:00,39.0,33.0,29.88,SSW,202,3.0,5.0,81,0.00,,,0.00,Rainwise IP-100,2013-03-02 11:26:00,
2013-03-02 06:31:00,38.0,33.0,29.88,WSW,247,0.0,7.0,81,0.00,,,0.00,Rainwise IP-100,2013-03-02 11:31:00,
2013-03-02 06:36:00,38.0,33.0,29.89,SSW,202,2.0,5.0,81,0.00,,,0.00,Rainwise IP-100,2013-03-02 11:36:00,
2013-03-02 06:41:00,38.0,33.0,29.89,SSW,202,0.0,6.0,83,0.00,,,0.00,Rainwise IP-100,2013-03-02 11:41:00,
2013-03-02 06:46:00,38.0,33.0,29.89,SSW,202,4.0,7.0,83,0.00,,,0.00,Rainwise IP-100,2013-03-02 11:46:00,
2013-03-02 06:51:00,38.0,33.0,29.89,SSW,202,5.0,6.0,84,0.00,,,0.00,Rainwise IP-100,2013-03-02 11:51:00,
2013-03-02 06:56:00,38.0,35.0,29.89,SSE,157,1.0,7.0,85,0.00,,,0.00,Rainwise IP-100,2013-03-02 11:56:00,
2013-03-02 07:01:00,38.0,35.0,29.88,SW,225,0.0,7.0,85,0.00,,,0.00,Rainwise IP-100,2013-03-02 12:01:00,
2013-03-02 07:06:00,37.0,33.0,29.88,WSW,247,5.0,6.0,86,0.00,,,0.00,Rainwise IP-100,2013-03-02 12:06:00,
2013-03-02 07:11:00,38.0,35.0,29.88,South,180,1.0,8.0,85,0.00,,,0.00,Rainwise IP-100,2013-03-02 12:11:00,
2013-03-02 07:16:00,38.0,33.0,29.88,SW,225,4.0,7.0,83,0.00,,,0.00,Rainwise IP-100,2013-03-02 12:16:00,
2013-03-02 07:21:00,38.0,33.0,29.89,SSW,202,7.0,9.0,83,0.00,,,0.00,Rainwise IP-100,2013-03-02 12:21:00,
2013-03-02 07:26:00,38.0,33.0,29.88,SW,225,4.0,9.0,83,0.00,,,0.00,Rainwise IP-100,2013-03-02 12:26:00,
2013-03-02 07:31:00,38.0,33.0,29.88,SSW,202,2.0,8.0,83,0.00,,,0.00,Rainwise IP-100,2013-03-02 12:31:00,
2013-03-02 07:36:00,38.0,33.0,29.88,SW,225,6.0,8.0,83,0.00,,,0.00,Rainwise IP-100,2013-03-02 12:36:00,
2013-03-02 07:41:00,38.0,33.0,29.89,SW,225,2.0,7.0,82,0.00,,,0.00,Rainwise IP-100,2013-03-02 12:41:00,
2013-03-02 07:46:00,38.0,33.0,29.89,WSW,247,0.0,9.0,82,0.00,,,0.00,Rainwise IP-100,2013-03-02 12:46:00,
2013-03-02 07:51:00,39.0,33.0,29.89,SW,225,10.0,10.0,81,0.00,,,0.00,Rainwise IP-100,2013-03-02 12:51:00,
2013-03-02 07:56:00,39.0,33.0,29.89,SW,225,10.0,11.0,80,0.00,,,0.00,Rainwise IP-100,2013-03-02 12:56:00,
2013-03-02 08:01:00,40.0,35.0,29.90,SSW,202,6.0,14.0,78,0.00,,,0.00,Rainwise IP-100,2013-03-02 13:01:00,
2013-03-02 08:06:00,40.0,33.0,29.90,SSE,157,0.0,16.0,77,0.00,,,0.00,Rainwise IP-100,2013-03-02 13:06:00,
2013-03-02 08:11:00,40.0,33.0,29.90,SW,225,7.0,13.0,77,0.00,,,0.00,Rainwise IP-100,2013-03-02 13:11:00,
2013-03-02 08:16:00,40.0,33.0,29.90,SW,225,6.0,11.0,75,0.00,,,0.00,Rainwise IP-100,2013-03-02 13:16:00,
2013-03-02 08:21:00,41.0,35.0,29.90,SSW,202,4.0,12.0,75,0.00,,,0.00,Rainwise IP-100,2013-03-02 13:21:00,
2013-03-02 08:26:00,41.0,33.0,29.90,SSW,202,7.0,14.0,73,0.00,,,0.00,Rainwise IP-100,2013-03-02 13:26:00,
2013-03-02 08:31:00,42.0,33.0,29.91,SW,225,9.0,14.0,72,0.00,,,0.00,Rainwise IP-100,2013-03-02 13:31:00,
2013-03-02 08:36:00,42.0,33.0,29.91,SW,225,4.0,13.0,71,0.00,,,0.00,Rainwise IP-100,2013-03-02 13:36:00,
2013-03-02 08:41:00,42.0,33.0,29.91,SSE,157,1.0,12.0,70,0.00,,,0.00,Rainwise IP-100,2013-03-02 13:41:00,
2013-03-02 08:46:00,43.0,35.0,29.92,SW,225,9.0,10.0,70,0.00,,,0.00,Rainwise IP-100,2013-03-02 13:46:00,
2013-03-02 08:51:00,44.0,35.0,29.92,SW,225,3.0,13.0,68,0.00,,,0.00,Rainwise IP-100,2013-03-02 13:51:00,
2013-03-02 08:56:00,44.0,33.0,29.92,SW,225,4.0,15.0,67,0.00,,,0.00,Rainwise IP-100,2013-03-02 13:56:00,
2013-03-02 09:01:00,44.0,33.0,29.92,SSW,202,6.0,10.0,67,0.00,,,0.00,Rainwise IP-100,2013-03-02 14:01:00,
2013-03-02 09:06:00,45.0,35.0,29.92,SW,225,9.0,16.0,65,0.00,,,0.00,Rainwise IP-100,2013-03-02 14:06:00,
2013-03-02 09:11:00,44.0,33.0,29.92,SSW,202,8.0,13.0,65,0.00,,,0.00,Rainwise IP-100,2013-03-02 14:11:00,
2013-03-02 09:16:00,45.0,35.0,29.92,SSW,202,5.0,12.0,66,0.00,,,0.00,Rainwise IP-100,2013-03-02 14:16:00,
2013-03-02 09:21:00,45.0,35.0,29.92,SSW,202,1.0,13.0,65,0.00,,,0.00,Rainwise IP-100,2013-03-02 14:21:00,
2013-03-02 09:26:00,45.0,35.0,29.92,SSW,202,5.0,12.0,65,0.00,,,0.00,Rainwise IP-100,2013-03-02 14:26:00,
2013-03-02 09:31:00,45.0,33.0,29.92,SSW,202,9.0,12.0,64,0.00,,,0.00,Rainwise IP-100,2013-03-02 14:31:00,
2013-03-02 09:36:00,46.0,33.0,29.92,SW,225,6.0,13.0,62,0.00,,,0.00,Rainwise IP-100,2013-03-02 14:36:00,
2013-03-02 09:41:00,46.0,35.0,29.92,SW,225,7.0,12.0,63,0.00,,,0.00,Rainwise IP-100,2013-03-02 14:41:00,
2013-03-02 09:46:00,46.0,33.0,29.92,SW,225,7.0,12.0,61,0.00,,,0.00,Rainwise IP-100,2013-03-02 14:46:00,
2013-03-02 09:51:00,46.0,33.0,29.92,SSW,202,9.0,14.0,61,0.00,,,0.00,Rainwise IP-100,2013-03-02 14:51:00,
2013-03-02 09:56:00,46.0,33.0,29.92,SW,225,5.0,13.0,61,0.00,,,0.00,Rainwise IP-100,2013-03-02 14:56:00,
2013-03-02 10:01:00,47.0,35.0,29.92,SW,225,2.0,9.0,61,0.00,,,0.00,Rainwise IP-100,2013-03-02 15:01:00,
2013-03-02 10:06:00,47.0,33.0,29.92,SSW,202,9.0,12.0,60,0.00,,,0.00,Rainwise IP-100,2013-03-02 15:06:00,
2013-03-02 10:11:00,47.0,35.0,29.92,SSW,202,7.0,13.0,61,0.00,,,0.00,Rainwise IP-100,2013-03-02 15:11:00,
2013-03-02 10:16:00,48.0,33.0,29.92,SW,225,3.0,12.0,57,0.00,,,0.00,Rainwise IP-100,2013-03-02 15:16:00,
2013-03-02 10:21:00,47.0,33.0,29.92,SW,225,7.0,13.0,58,0.00,,,0.00,Rainwise IP-100,2013-03-02 15:21:00,
2013-03-02 10:26:00,47.0,32.0,29.92,SSW,202,6.0,16.0,56,0.00,,,0.00,Rainwise IP-100,2013-03-02 15:26:00,
2013-03-02 10:31:00,47.0,32.0,29.91,SSW,202,7.0,14.0,57,0.00,,,0.00,Rainwise IP-100,2013-03-02 15:31:00,
2013-03-02 10:36:00,48.0,33.0,29.92,WNW,292,6.0,13.0,56,0.00,,,0.00,Rainwise IP-100,2013-03-02 15:36:00,
2013-03-02 10:41:00,48.0,33.0,29.91,WSW,247,6.0,15.0,55,0.00,,,0.00,Rainwise IP-100,2013-03-02 15:41:00,
2013-03-02 10:46:00,49.0,32.0,29.91,SW,225,7.0,17.0,52,0.00,,,0.00,Rainwise IP-100,2013-03-02 15:46:00,
2013-03-02 10:51:00,48.0,32.0,29.91,SW,225,6.0,15.0,52,0.00,,,0.00,Rainwise IP-100,2013-03-02 15:51:00,
2013-03-02 10:56:00,48.0,32.0,29.91,South,180,7.0,17.0,52,0.00,,,0.00,Rainwise IP-100,2013-03-02 15:56:00,
2013-03-02 11:01:00,47.0,31.0,29.91,South,180,6.0,17.0,53,0.00,,,0.00,Rainwise IP-100,2013-03-02 16:01:00,
2013-03-02 11:06:00,48.0,32.0,29.91,SSW,202,9.0,19.0,53,0.00,,,0.00,Rainwise IP-100,2013-03-02 16:06:00,
2013-03-02 11:11:00,48.0,32.0,29.91,South,180,5.0,17.0,52,0.00,,,0.00,Rainwise IP-100,2013-03-02 16:11:00,
2013-03-02 11:16:00,48.0,32.0,29.90,SSW,202,9.0,13.0,53,0.00,,,0.00,Rainwise IP-100,2013-03-02 16:16:00,
2013-03-02 11:21:00,48.0,31.0,29.91,WSW,247,5.0,19.0,51,0.00,,,0.00,Rainwise IP-100,2013-03-02 16:21:00,
2013-03-02 11:26:00,49.0,32.0,29.90,South,180,4.0,15.0,50,0.00,,,0.00,Rainwise IP-100,2013-03-02 16:26:00,
2013-03-02 11:31:00,50.0,32.0,29.91,WSW,247,10.0,13.0,50,0.00,,,0.00,Rainwise IP-100,2013-03-02 16:31:00,
2013-03-02 11:36:00,49.0,32.0,29.91,SSW,202,10.0,15.0,50,0.00,,,0.00,Rainwise IP-100,2013-03-02 16:36:00,
2013-03-02 11:41:00,49.0,32.0,29.91,SSW,202,7.0,16.0,50,0.00,,,0.00,Rainwise IP-100,2013-03-02 16:41:00,
2013-03-02 11:46:00,49.0,32.0,29.90,SW,225,5.0,15.0,50,0.00,,,0.00,Rainwise IP-100,2013-03-02 16:46:00,
2013-03-02 11:51:00,49.0,32.0,29.90,SW,225,2.0,16.0,50,0.00,,,0.00,Rainwise IP-100,2013-03-02 16:51:00,
2013-03-02 11:56:00,49.0,32.0,29.90,SSW,202,0.0,13.0,50,0.00,,,0.00,Rainwise IP-100,2013-03-02 16:56:00,
2013-03-02 12:01:00,48.0,31.0,29.89,WSW,247,0.0,15.0,51,0.00,,,0.00,Rainwise IP-100,2013-03-02 17:01:00,
2013-03-02 12:06:00,49.0,32.0,29.89,SW,225,7.0,15.0,51,0.00,,,0.00,Rainwise IP-100,2013-03-02 17:06:00,
2013-03-02 12:11:00,49.0,32.0,29.88,SW,225,11.0,16.0,50,0.00,,,0.00,Rainwise IP-100,2013-03-02 17:11:00,
2013-03-02 12:16:00,48.0,32.0,29.88,SW,225,2.0,17.0,52,0.00,,,0.00,Rainwise IP-100,2013-03-02 17:16:00,
2013-03-02 12:21:00,49.0,32.0,29.88,SSW,202,6.0,8.0,51,0.00,,,0.00,Rainwise IP-100,2013-03-02 17:21:00,
2013-03-02 12:26:00,50.0,31.0,29.88,SW,225,1.0,13.0,48,0.00,,,0.00,Rainwise IP-100,2013-03-02 17:26:00,
2013-03-02 12:31:00,51.0,32.0,29.88,South,180,5.0,17.0,47,0.00,,,0.00,Rainwise IP-100,2013-03-02 17:31:00,
2013-03-02 12:36:00,51.0,33.0,29.88,SE,135,5.0,17.0,50,0.00,,,0.00,Rainwise IP-100,2013-03-02 17:36:00,
2013-03-02 12:41:00,51.0,31.0,29.88,SW,225,0.0,14.0,45,0.00,,,0.00,Rainwise IP-100,2013-03-02 17:41:00,
2013-03-02 12:46:00,50.0,31.0,29.88,SSW,202,2.0,14.0,47,0.00,,,0.00,Rainwise IP-100,2013-03-02 17:46:00,
2013-03-02 12:51:00,50.0,32.0,29.87,SW,225,5.0,14.0,50,0.00,,,0.00,Rainwise IP-100,2013-03-02 17:51:00,
2013-03-02 12:56:00,50.0,32.0,29.87,South,180,10.0,16.0,49,0.00,,,0.00,Rainwise IP-100,2013-03-02 17:56:00,
2013-03-02 13:01:00,50.0,31.0,29.87,SW,225,4.0,16.0,48,0.00,,,0.00,Rainwise IP-100,2013-03-02 18:01:00,
2013-03-02 13:06:00,50.0,31.0,29.86,SSW,202,8.0,14.0,48,0.00,,,0.00,Rainwise IP-100,2013-03-02 18:06:00,
2013-03-02 13:11:00,51.0,32.0,29.86,SSW,202,8.0,16.0,47,0.00,,,0.00,Rainwise IP-100,2013-03-02 18:11:00,
2013-03-02 13:16:00,51.0,32.0,29.86,SW,225,7.0,16.0,47,0.00,,,0.00,Rainwise IP-100,2013-03-02 18:16:00,
2013-03-02 13:21:00,51.0,31.0,29.86,SSW,202,4.0,14.0,46,0.00,,,0.00,Rainwise IP-100,2013-03-02 18:21:00,
2013-03-02 13:26:00,52.0,32.0,29.86,SW,225,10.0,17.0,46,0.00,,,0.00,Rainwise IP-100,2013-03-02 18:26:00,
2013-03-02 13:32:00,51.0,31.0,29.86,SSW,202,13.0,14.0,45,0.00,,,0.00,Rainwise IP-100,2013-03-02 18:32:00,
2013-03-02 13:37:00,50.0,32.0,29.86,SSW,202,9.0,17.0,49,0.00,,,0.00,Rainwise IP-100,2013-03-02 18:37:00,
2013-03-02 13:42:00,50.0,31.0,29.86,SSW,202,1.0,17.0,48,0.00,,,0.00,Rainwise IP-100,2013-03-02 18:42:00,
2013-03-02 13:47:00,50.0,32.0,29.85,SSW,202,14.0,16.0,49,0.00,,,0.00,Rainwise IP-100,2013-03-02 18:47:00,
2013-03-02 13:52:00,50.0,31.0,29.86,SSW,202,6.0,15.0,48,0.00,,,0.00,Rainwise IP-100,2013-03-02 18:52:00,
2013-03-02 13:57:00,49.0,31.0,29.85,SSW,202,6.0,17.0,49,0.00,,,0.00,Rainwise IP-100,2013-03-02 18:57:00,
2013-03-02 14:02:00,49.0,31.0,29.85,WSW,247,3.0,15.0,49,0.00,,,0.00,Rainwise IP-100,2013-03-02 19:02:00,
2013-03-02 14:07:00,49.0,31.0,29.85,SSW,202,9.0,16.0,49,0.00,,,0.00,Rainwise IP-100,2013-03-02 19:07:00,
2013-03-02 14:12:00,49.0,32.0,29.85,SSW,202,4.0,13.0,50,0.00,,,0.00,Rainwise IP-100,2013-03-02 19:12:00,
2013-03-02 14:17:00,49.0,32.0,29.85,West,270,0.0,16.0,51,0.00,,,0.00,Rainwise IP-100,2013-03-02 19:17:00,
2013-03-02 14:22:00,49.0,32.0,29.85,SSW,202,6.0,11.0,52,0.00,,,0.00,Rainwise IP-100,2013-03-02 19:22:00,
2013-03-02 14:27:00,49.0,32.0,29.85,WSW,247,2.0,13.0,52,0.00,,,0.00,Rainwise IP-100,2013-03-02 19:27:00,
2013-03-02 14:32:00,49.0,33.0,29.85,SW,225,8.0,13.0,53,0.00,,,0.00,Rainwise IP-100,2013-03-02 19:32:00,
2013-03-02 14:37:00,48.0,32.0,29.85,SSW,202,3.0,15.0,53,0.00,,,0.00,Rainwise IP-100,2013-03-02 19:37:00,
2013-03-02 14:42:00,48.0,33.0,29.85,SSW,202,3.0,14.0,55,0.00,,,0.00,Rainwise IP-100,2013-03-02 19:42:00,
2013-03-02 14:47:00,48.0,32.0,29.85,SSW,202,6.0,13.0,53,0.00,,,0.00,Rainwise IP-100,2013-03-02 19:47:00,
2013-03-02 14:52:00,48.0,32.0,29.85,NNW,337,4.0,10.0,54,0.00,,,0.00,Rainwise IP-100,2013-03-02 19:52:00,
2013-03-02 14:57:00,48.0,33.0,29.85,SW,225,4.0,13.0,55,0.00,,,0.00,Rainwise IP-100,2013-03-02 19:57:00,
2013-03-02 15:02:00,48.0,33.0,29.85,SW,225,1.0,15.0,56,0.00,,,0.00,Rainwise IP-100,2013-03-02 20:02:00,
2013-03-02 15:07:00,48.0,33.0,29.85,SW,225,10.0,16.0,56,0.00,,,0.00,Rainwise IP-100,2013-03-02 20:07:00,
2013-03-02 15:12:00,48.0,33.0,29.85,WSW,247,10.0,16.0,55,0.00,,,0.00,Rainwise IP-100,2013-03-02 20:12:00,
2013-03-02 15:17:00,48.0,33.0,29.86,SW,225,12.0,15.0,57,0.00,,,0.00,Rainwise IP-100,2013-03-02 20:17:00,
2013-03-02 15:22:00,48.0,33.0,29.86,SW,225,0.0,12.0,57,0.00,,,0.00,Rainwise IP-100,2013-03-02 20:22:00,
2013-03-02 15:27:00,48.0,35.0,29.85,SSW,202,3.0,15.0,58,0.00,,,0.00,Rainwise IP-100,2013-03-02 20:27:00,
2013-03-02 15:32:00,48.0,35.0,29.85,NNW,337,1.0,16.0,58,0.00,,,0.00,Rainwise IP-100,2013-03-02 20:32:00,
2013-03-02 15:37:00,48.0,35.0,29.86,WSW,247,0.0,12.0,58,0.00,,,0.00,Rainwise IP-100,2013-03-02 20:37:00,
2013-03-02 15:42:00,47.0,33.0,29.86,WSW,247,9.0,13.0,58,0.00,,,0.00,Rainwise IP-100,2013-03-02 20:42:00,
2013-03-02 15:47:00,47.0,33.0,29.86,WSW,247,4.0,13.0,58,0.00,,,0.00,Rainwise IP-100,2013-03-02 20:47:00,
2013-03-02 15:52:00,47.0,33.0,29.85,SW,225,7.0,10.0,59,0.00,,,0.00,Rainwise IP-100,2013-03-02 20:52:00,
2013-03-02 15:57:00,47.0,35.0,29.85,SSW,202,4.0,13.0,61,0.00,,,0.00,Rainwise IP-100,2013-03-02 20:57:00,
2013-03-02 16:02:00,47.0,35.0,29.85,NW,315,0.0,9.0,61,0.00,,,0.00,Rainwise IP-100,2013-03-02 21:02:00,
2013-03-02 16:07:00,47.0,35.0,29.85,NW,315,3.0,10.0,61,0.00,,,0.00,Rainwise IP-100,2013-03-02 21:07:00,
2013-03-02 16:12:00,47.0,35.0,29.86,WSW,247,0.0,13.0,61,0.00,,,0.00,Rainwise IP-100,2013-03-02 21:12:00,
2013-03-02 16:17:00,47.0,33.0,29.86,SSW,202,3.0,12.0,60,0.00,,,0.00,Rainwise IP-100,2013-03-02 21:17:00,
2013-03-02 16:22:00,47.0,35.0,29.86,SW,225,8.0,13.0,61,0.00,,,0.00,Rainwise IP-100,2013-03-02 21:22:00,
2013-03-02 16:27:00,47.0,33.0,29.86,South,180,6.0,15.0,60,0.00,,,0.00,Rainwise IP-100,2013-03-02 21:27:00,
2013-03-02 16:32:00,47.0,33.0,29.86,SSW,202,4.0,12.0,60,0.00,,,0.00,Rainwise IP-100,2013-03-02 21:32:00,
2013-03-02 16:37:00,46.0,33.0,29.86,SSW,202,4.0,9.0,61,0.00,,,0.00,Rainwise IP-100,2013-03-02 21:37:00,
2013-03-02 16:42:00,46.0,33.0,29.86,SW,225,5.0,11.0,61,0.00,,,0.00,Rainwise IP-100,2013-03-02 21:42:00,
2013-03-02 16:47:00,46.0,33.0,29.86,ESE,112,0.0,10.0,62,0.00,,,0.00,Rainwise IP-100,2013-03-02 21:47:00,
2013-03-02 16:52:00,46.0,33.0,29.86,SW,225,6.0,14.0,62,0.00,,,0.00,Rainwise IP-100,2013-03-02 21:52:00,
2013-03-02 16:57:00,46.0,33.0,29.86,SW,225,2.0,12.0,61,0.00,,,0.00,Rainwise IP-100,2013-03-02 21:57:00,
2013-03-02 17:02:00,46.0,33.0,29.86,SSW,202,2.0,10.0,62,0.00,,,0.00,Rainwise IP-100,2013-03-02 22:02:00,
2013-03-02 17:07:00,46.0,35.0,29.86,SW,225,1.0,9.0,63,0.00,,,0.00,Rainwise IP-100,2013-03-02 22:07:00,
2013-03-02 17:12:00,46.0,35.0,29.86,SSW,202,2.0,9.0,64,0.00,,,0.00,Rainwise IP-100,2013-03-02 22:12:00,
2013-03-02 17:17:00,46.0,35.0,29.86,SW,225,10.0,13.0,63,0.00,,,0.00,Rainwise IP-100,2013-03-02 22:17:00,
2013-03-02 17:22:00,46.0,35.0,29.86,West,270,0.0,15.0,63,0.00,,,0.00,Rainwise IP-100,2013-03-02 22:22:00,
2013-03-02 17:27:00,46.0,35.0,29.86,SW,225,2.0,14.0,64,0.00,,,0.00,Rainwise IP-100,2013-03-02 22:27:00,
2013-03-02 17:32:00,46.0,35.0,29.87,WSW,247,3.0,7.0,64,0.00,,,0.00,Rainwise IP-100,2013-03-02 22:32:00,
2013-03-02 17:37:00,46.0,35.0,29.87,WSW,247,1.0,8.0,65,0.00,,,0.00,Rainwise IP-100,2013-03-02 22:37:00,
2013-03-02 17:42:00,46.0,35.0,29.87,NW,315,1.0,15.0,66,0.00,,,0.00,Rainwise IP-100,2013-03-02 22:42:00,
2013-03-02 17:47:00,46.0,35.0,29.87,SSW,202,7.0,10.0,65,0.00,,,0.00,Rainwise IP-100,2013-03-02 22:47:00,
2013-03-02 17:52:00,46.0,35.0,29.87,SSW,202,12.0,12.0,66,0.00,,,0.00,Rainwise IP-100,2013-03-02 22:52:00,
2013-03-02 17:57:00,45.0,35.0,29.88,WSW,247,2.0,12.0,66,0.00,,,0.00,Rainwise IP-100,2013-03-02 22:57:00,
2013-03-02 18:02:00,45.0,35.0,29.88,WSW,247,3.0,12.0,66,0.00,,,0.00,Rainwise IP-100,2013-03-02 23:02:00,
2013-03-02 18:07:00,45.0,35.0,29.88,SW,225,3.0,12.0,66,0.00,,,0.00,Rainwise IP-100,2013-03-02 23:07:00,
2013-03-02 18:12:00,45.0,35.0,29.88,SSW,202,2.0,10.0,66,0.00,,,0.00,Rainwise IP-100,2013-03-02 23:12:00,
2013-03-02 18:17:00,45.0,35.0,29.88,West,270,5.0,10.0,67,0.00,,,0.00,Rainwise IP-100,2013-03-02 23:17:00,
2013-03-02 18:22:00,45.0,35.0,29.88,West,270,3.0,9.0,67,0.00,,,0.00,Rainwise IP-100,2013-03-02 23:22:00,
2013-03-02 18:27:00,45.0,35.0,29.89,South,180,0.0,9.0,68,0.00,,,0.00,Rainwise IP-100,2013-03-02 23:27:00,
2013-03-02 18:32:00,45.0,35.0,29.89,WNW,292,7.0,11.0,68,0.00,,,0.00,Rainwise IP-100,2013-03-02 23:32:00,
2013-03-02 18:37:00,45.0,36.0,29.89,SW,225,7.0,11.0,69,0.00,,,0.00,Rainwise IP-100,2013-03-02 23:37:00,
2013-03-02 18:42:00,45.0,36.0,29.89,SSW,202,7.0,10.0,69,0.00,,,0.00,Rainwise IP-100,2013-03-02 23:42:00,
2013-03-02 18:47:00,45.0,36.0,29.89,SW,225,7.0,13.0,71,0.00,,,0.00,Rainwise IP-100,2013-03-02 23:47:00,
2013-03-02 18:52:00,45.0,36.0,29.89,SSW,202,3.0,9.0,71,0.00,,,0.00,Rainwise IP-100,2013-03-02 23:52:00,
2013-03-02 18:57:00,45.0,36.0,29.89,WSW,247,7.0,9.0,71,0.00,,,0.00,Rainwise IP-100,2013-03-02 23:57:00,
2013-03-02 19:02:00,45.0,36.0,29.89,WSW,247,4.0,9.0,71,0.00,,,0.00,Rainwise IP-100,2013-03-03 00:02:00,
2013-03-02 19:07:00,45.0,36.0,29.89,SW,225,7.0,13.0,71,0.00,,,0.00,Rainwise IP-100,2013-03-03 00:07:00,
2013-03-02 19:12:00,45.0,36.0,29.89,SW,225,7.0,10.0,71,0.00,,,0.00,Rainwise IP-100,2013-03-03 00:12:00,
2013-03-02 19:17:00,45.0,36.0,29.90,South,180,0.0,9.0,71,0.00,,,0.00,Rainwise IP-100,2013-03-03 00:17:00,
2013-03-02 19:22:00,45.0,36.0,29.90,West,270,0.0,8.0,71,0.00,,,0.00,Rainwise IP-100,2013-03-03 00:22:00,
2013-03-02 19:27:00,45.0,36.0,29.90,SW,225,3.0,10.0,71,0.00,,,0.00,Rainwise IP-100,2013-03-03 00:27:00,
2013-03-02 19:32:00,44.0,36.0,29.90,South,180,1.0,9.0,71,0.00,,,0.00,Rainwise IP-100,2013-03-03 00:32:00,
2013-03-02 19:37:00,44.0,35.0,29.89,SSW,202,4.0,9.0,70,0.00,,,0.00,Rainwise IP-100,2013-03-03 00:37:00,
2013-03-02 19:42:00,44.0,35.0,29.90,SSW,202,9.0,12.0,70,0.00,,,0.00,Rainwise IP-100,2013-03-03 00:42:00,
2013-03-02 19:47:00,44.0,36.0,29.90,SW,225,5.0,13.0,71,0.00,,,0.00,Rainwise IP-100,2013-03-03 00:47:00,
2013-03-02 19:52:00,44.0,36.0,29.90,WSW,247,7.0,9.0,72,0.00,,,0.00,Rainwise IP-100,2013-03-03 00:52:00,
2013-03-02 19:57:00,44.0,36.0,29.90,SSW,202,3.0,9.0,72,0.00,,,0.00,Rainwise IP-100,2013-03-03 00:57:00,
2013-03-02 20:02:00,44.0,36.0,29.90,WSW,247,2.0,9.0,72,0.00,,,0.00,Rainwise IP-100,2013-03-03 01:02:00,
2013-03-02 20:07:00,44.0,36.0,29.90,SW,225,0.0,9.0,72,0.00,,,0.00,Rainwise IP-100,2013-03-03 01:07:00,
2013-03-02 20:12:00,44.0,36.0,29.90,WSW,247,4.0,11.0,73,0.00,,,0.00,Rainwise IP-100,2013-03-03 01:12:00,
2013-03-02 20:17:00,44.0,36.0,29.90,SSW,202,7.0,13.0,72,0.00,,,0.00,Rainwise IP-100,2013-03-03 01:17:00,
2013-03-02 20:22:00,44.0,36.0,29.90,SW,225,0.0,16.0,71,0.00,,,0.00,Rainwise IP-100,2013-03-03 01:22:00,
2013-03-02 20:27:00,44.0,36.0,29.90,SW,225,1.0,9.0,72,0.00,,,0.00,Rainwise IP-100,2013-03-03 01:27:00,
2013-03-02 20:32:00,44.0,36.0,29.90,SW,225,1.0,6.0,72,0.00,,,0.00,Rainwise IP-100,2013-03-03 01:32:00,
2013-03-02 20:37:00,43.0,36.0,29.91,WSW,247,3.0,7.0,74,0.00,,,0.00,Rainwise IP-100,2013-03-03 01:37:00,
2013-03-02 20:42:00,43.0,36.0,29.91,WSW,247,1.0,10.0,74,0.00,,,0.00,Rainwise IP-100,2013-03-03 01:42:00,
2013-03-02 20:47:00,43.0,36.0,29.91,WSW,247,0.0,7.0,74,0.00,,,0.00,Rainwise IP-100,2013-03-03 01:47:00,
2013-03-02 20:52:00,43.0,36.0,29.91,SW,225,5.0,8.0,75,0.00,,,0.00,Rainwise IP-100,2013-03-03 01:52:00,
2013-03-02 20:57:00,43.0,36.0,29.91,SSW,202,2.0,6.0,75,0.00,,,0.00,Rainwise IP-100,2013-03-03 01:57:00,
2013-03-02 21:02:00,43.0,36.0,29.91,SSW,202,1.0,7.0,76,0.00,,,0.00,Rainwise IP-100,2013-03-03 02:02:00,
2013-03-02 21:07:00,43.0,36.0,29.91,SW,225,6.0,9.0,76,0.00,,,0.00,Rainwise IP-100,2013-03-03 02:07:00,
2013-03-02 21:12:00,43.0,36.0,29.91,SW,225,7.0,9.0,76,0.00,,,0.00,Rainwise IP-100,2013-03-03 02:12:00,
2013-03-02 21:17:00,42.0,36.0,29.91,SSW,202,0.0,7.0,76,0.00,,,0.00,Rainwise IP-100,2013-03-03 02:17:00,
2013-03-02 21:22:00,42.0,36.0,29.92,SW,225,0.0,6.0,77,0.00,,,0.00,Rainwise IP-100,2013-03-03 02:22:00,
2013-03-02 21:27:00,42.0,36.0,29.91,SSW,202,2.0,6.0,77,0.00,,,0.00,Rainwise IP-100,2013-03-03 02:27:00,
2013-03-02 21:32:00,42.0,36.0,29.91,SW,225,5.0,9.0,78,0.00,,,0.00,Rainwise IP-100,2013-03-03 02:32:00,
2013-03-02 21:37:00,42.0,36.0,29.91,SSW,202,6.0,8.0,78,0.00,,,0.00,Rainwise IP-100,2013-03-03 02:37:00,
2013-03-02 21:42:00,42.0,36.0,29.91,WSW,247,0.0,10.0,77,0.00,,,0.00,Rainwise IP-100,2013-03-03 02:42:00,
2013-03-02 21:47:00,42.0,36.0,29.92,SW,225,7.0,11.0,76,0.00,,,0.00,Rainwise IP-100,2013-03-03 02:47:00,
2013-03-02 21:52:00,42.0,36.0,29.92,WSW,247,1.0,10.0,76,0.00,,,0.00,Rainwise IP-100,2013-03-03 02:52:00,
2013-03-02 21:57:00,42.0,36.0,29.91,SW,225,2.0,9.0,77,0.00,,,0.00,Rainwise IP-100,2013-03-03 02:57:00,
2013-03-02 22:02:00,42.0,36.0,29.91,SSW,202,2.0,10.0,78,0.00,,,0.00,Rainwise IP-100,2013-03-03 03:02:00,
2013-03-02 22:07:00,42.0,36.0,29.91,WSW,247,1.0,8.0,78,0.00,,,0.00,Rainwise IP-100,2013-03-03 03:07:00,
2013-03-02 22:12:00,42.0,36.0,29.91,SSW,202,5.0,7.0,78,0.00,,,0.00,Rainwise IP-100,2013-03-03 03:12:00,
2013-03-02 22:17:00,42.0,36.0,29.91,SSW,202,2.0,10.0,78,0.00,,,0.00,Rainwise IP-100,2013-03-03 03:17:00,
2013-03-02 22:22:00,42.0,36.0,29.91,SW,225,6.0,9.0,79,0.00,,,0.00,Rainwise IP-100,2013-03-03 03:22:00,
2013-03-02 22:27:00,42.0,36.0,29.91,SSW,202,1.0,11.0,79,0.00,,,0.00,Rainwise IP-100,2013-03-03 03:27:00,
2013-03-02 22:32:00,42.0,37.0,29.90,SW,225,1.0,6.0,80,0.00,,,0.00,Rainwise IP-100,2013-03-03 03:32:00,
2013-03-02 22:37:00,41.0,36.0,29.91,SW,225,7.0,9.0,80,0.00,,,0.00,Rainwise IP-100,2013-03-03 03:37:00,
2013-03-02 22:42:00,41.0,36.0,29.91,SW,225,2.0,7.0,80,0.00,,,0.00,Rainwise IP-100,2013-03-03 03:42:00,
2013-03-02 22:47:00,41.0,36.0,29.90,SW,225,1.0,7.0,81,0.00,,,0.00,Rainwise IP-100,2013-03-03 03:47:00,
2013-03-02 22:52:00,41.0,36.0,29.90,SSW,202,1.0,6.0,81,0.00,,,0.00,Rainwise IP-100,2013-03-03 03:52:00,
2013-03-02 22:57:00,41.0,36.0,29.90,SW,225,3.0,9.0,82,0.00,,,0.00,Rainwise IP-100,2013-03-03 03:57:00,
2013-03-02 23:02:00,41.0,36.0,29.90,SW,225,1.0,10.0,82,0.00,,,0.00,Rainwise IP-100,2013-03-03 04:02:00,
2013-03-02 23:07:00,41.0,36.0,29.90,SSW,202,4.0,7.0,82,0.00,,,0.00,Rainwise IP-100,2013-03-03 04:07:00,
2013-03-02 23:12:00,41.0,37.0,29.90,SSW,202,0.0,6.0,83,0.00,,,0.00,Rainwise IP-100,2013-03-03 04:12:00,
2013-03-02 23:17:00,41.0,37.0,29.90,SW,225,6.0,7.0,84,0.00,,,0.00,Rainwise IP-100,2013-03-03 04:17:00,
2013-03-02 23:22:00,41.0,37.0,29.90,WSW,247,0.0,8.0,84,0.00,,,0.00,Rainwise IP-100,2013-03-03 04:22:00,
2013-03-02 23:27:00,41.0,37.0,29.90,SW,225,1.0,7.0,84,0.00,,,0.00,Rainwise IP-100,2013-03-03 04:27:00,
2013-03-02 23:32:00,41.0,37.0,29.90,WSW,247,0.0,6.0,85,0.00,,,0.00,Rainwise IP-100,2013-03-03 04:32:00,
2013-03-02 23:37:00,40.0,36.0,29.90,SW,225,6.0,6.0,85,0.00,,,0.00,Rainwise IP-100,2013-03-03 04:37:00,
2013-03-02 23:42:00,40.0,36.0,29.89,SSW,202,0.0,6.0,85,0.00,,,0.00,Rainwise IP-100,2013-03-03 04:42:00,
2013-03-02 23:47:00,40.0,36.0,29.90,WSW,247,1.0,7.0,85,0.00,,,0.00,Rainwise IP-100,2013-03-03 04:47:00,
2013-03-02 23:52:00,40.0,37.0,29.90,SSW,202,4.0,7.0,86,0.00,,,0.00,Rainwise IP-100,2013-03-03 04:52:00,
2013-03-02 23:57:00,40.0,37.0,29.90,WSW,247,5.0,10.0,86,0.00,,,0.00,Rainwise IP-100,2013-03-03 04:57:00,